RH
17 18 33 54 68 68 64 56 53 59 44 24 68 34 20 45 39 44 27 53 60 65 64 63 63 65 74 68 53 54 41 37 38 39 39 29 29 28 24 23 21 20 19 19 17
15 18 26 62 65 66 73 74 65 51 56 59 22 25 28 12 53 40 41 29 40 58 63 65 63 62 62 62 61 61 43 46 49 42 43 35 33 30 27 24 23 23 22 20 19
14 17 47 81 76 79 71 70 74 68 51 54 62 30 17 24 13 38 42 38 32 31 47 59 61 62 60 58 57 54 49 52 49 51 47 42 37 32 31 25 26 24 21 22 20
14 26 54 82 90 66 54 53 56 55 55 54 60 62 43 23 28 19 21 40 40 34 29 34 47 52 56 56 56 54 53 50 49 50 47 44 40 37 34 30 27 24 24 22 19
22 46 62 76 85 74 40 33 31 31 32 42 53 58 66 50 30 22 29 15 43 43 34 30 30 36 43 46 51 51 52 50 48 48 46 44 42 40 35 31 31 26 26 23 22
38 52 67 64 56 46 53 20 18 18 20 25 33 42 55 57 56 42 27 52 16 42 45 36 33 32 31 34 37 41 44 46 45 45 44 43 42 38 37 34 33 29 27 24 22
45 48 47 29 19 18 17 17 18 15 10 9 10 20 26 42 61 77 64 37 58 26 36 46 39 34 30 29 27 28 33 34 38 39 38 37 37 35 32 31 29 27 23 20 16
45 39 28 32 34 32 29 28 25 24 20 17 14 8 14 16 31 51 80 87 65 74 62 38 45 40 36 29 27 25 27 27 29 29 30 30 27 25 24 22 21 18 15 11 8
39 37 37 34 32 31 29 26 23 20 13 9 14 15 13 10 10 20 43 90 99 96 88 30 47 42 39 34 35 28 24 22 26 26 24 23 24 24 21 16 14 12 10 8 7
32 37 33 29 25 22 19 17 14 12 10 9 7 8 20 15 8 8 12 30 96 100 94 52 22 45 38 36 30 32 29 28 28 24 26 20 19 21 22 18 14 10 9 8 8
37 33 24 17 13 11 8 7 6 4 4 4 4 4 5 9 9 9 9 10 31 95 99 79 28 30 36 39 47 43 39 35 30 24 25 20 18 18 18 14 15 12 9 9 9
33 22 16 13 9 4 3 2 2 2 3 4 5 4 3 4 6 8 10 10 10 41 87 99 56 22 56 56 47 43 43 37 35 25 25 25 18 21 17 13 16 16 11 12 13
24 17 12 7 3 2 2 5 11 18 16 12 9 11 6 4 8 9 7 13 10 11 28 84 97 26 28 69 50 45 45 44 38 30 27 28 20 21 19 21 22 18 16 17 19
18 13 6 2 2 5 13 51 91 100 96 36 52 38 19 7 23 80 11 9 12 10 12 41 89 83 17 53 65 48 51 52 43 38 34 26 20 23 21 17 20 25 24 27 22
15 8 2 2 6 31 71 100 100 100 94 96 96 82 75 56 34 42 96 62 19 12 11 19 68 97 41 18 67 62 60 58 53 44 38 25 23 21 20 18 19 26 30 28 20
9 3 2 8 49 88 100 100 100 100 99 93 98 88 96 87 74 63 45 48 83 31 15 18 29 44 100 43 29 81 62 61 59 50 34 29 23 17 18 21 27 28 26 25 25
4 2 5 22 71 98 99 100 100 98 100 98 98 98 85 65 88 80 74 74 65 79 46 14 16 28 63 99 20 62 90 62 64 53 26 28 25 15 22 25 27 27 30 26 26
2 4 14 49 85 86 99 100 92 91 100 100 99 100 99 90 95 100 94 94 83 64 85 47 17 18 33 73 67 28 74 70 60 49 40 32 21 15 24 24 28 29 31 27 26
3 10 31 82 70 76 94 96 83 100 97 100 100 100 100 100 100 100 98 91 87 77 83 100 75 21 19 26 81 87 63 91 69 52 49 32 26 25 28 28 28 28 31 28 25
5 26 43 65 76 99 97 94 100 100 100 100 99 90 96 98 100 98 100 100 100 77 82 98 100 58 19 20 20 46 84 93 86 61 48 45 33 30 29 30 29 29 31 31 29
8 26 77 70 89 94 80 92 88 98 100 100 95 93 100 88 100 99 92 97 83 100 70 79 100 93 36 17 16 14 25 86 96 78 59 63 47 36 31 31 32 30 30 31 32
10 30 66 66 72 64 78 94 90 100 100 100 95 100 100 100 98 100 99 100 95 92 94 79 100 95 52 29 20 14 15 20 63 81 70 66 88 64 33 31 33 34 33 35 35
14 32 62 61 73 81 86 87 87 99 95 90 90 100 99 99 100 100 100 100 94 78 97 99 91 94 92 39 22 14 12 10 20 81 80 72 68 80 49 35 34 36 39 36 35
22 32 56 79 88 93 64 68 76 82 67 76 74 100 98 97 96 98 99 100 100 100 100 100 95 68 70 39 26 17 12 10 14 44 73 82 70 64 71 47 36 36 37 40 39
30 40 74 97 66 53 73 68 57 61 52 59 67 76 99 98 96 94 100 100 100 79 100 98 90 84 100 100 60 20 17 12 10 12 51 82 70 77 61 66 49 44 41 43 41
41 59 76 84 85 100 100 98 82 65 53 59 62 55 85 100 100 98 100 95 93 99 80 87 64 71 86 100 99 93 58 15 10 10 20 70 70 60 62 62 56 48 42 42 43
44 60 70 59 60 67 96 99 74 97 100 70 55 56 94 100 100 94 86 91 91 100 100 99 81 74 58 56 72 87 48 26 11 10 9 12 53 56 48 62 59 57 53 46 45
Wind_Speed
48 44 41 39 38 37 36 37 39 39 41 42 46 44 42 43 43 41 41 43 42 41 40 40 40 40 40 41 42 41 42 39 38 36 35 36 36 36 35 32 35 32 29 29 30
49 43 44 42 38 39 39 39 39 42 41 40 46 47 46 43 45 43 43 43 45 44 44 43 43 43 42 42 43 46 43 40 40 40 39 37 39 38 37 35 35 33 31 30 32
48 47 47 43 42 40 40 40 41 40 44 44 41 49 48 47 44 45 45 44 43 45 46 47 46 45 45 45 44 44 45 43 41 37 40 41 42 40 39 38 36 36 35 34 35
50 48 47 44 42 39 37 38 38 37 41 46 44 41 49 50 48 43 45 45 45 45 46 48 48 48 48 47 45 45 45 45 42 41 43 43 45 41 43 41 41 39 38 37 35
51 49 44 40 38 35 36 34 34 34 35 41 45 41 39 49 50 48 45 45 47 46 47 46 48 49 50 49 49 48 47 47 46 44 45 46 45 45 45 45 42 43 40 38 38
49 47 41 38 37 37 39 37 35 34 34 36 42 44 38 39 46 54 49 49 45 49 48 48 46 47 50 52 50 50 48 48 49 48 47 46 47 47 45 46 44 44 43 42 41
46 43 41 40 39 41 41 42 42 40 38 38 41 43 45 37 39 50 57 50 50 44 49 49 49 49 48 50 50 51 48 49 50 49 48 47 47 45 46 46 46 46 46 44 43
48 45 42 44 48 49 49 49 48 49 48 47 47 47 45 41 40 43 50 61 55 55 47 50 51 50 49 51 49 49 48 50 48 49 49 47 44 43 45 44 46 47 45 44 43
47 47 49 51 51 51 51 55 57 56 56 54 53 55 49 44 43 45 48 50 61 61 55 52 54 53 52 51 48 50 50 49 47 47 45 45 42 39 42 41 43 43 42 41 40
51 52 55 54 55 57 59 61 62 64 64 64 60 60 55 54 47 49 49 48 47 53 64 55 56 56 55 52 52 49 48 46 44 44 43 43 40 38 36 39 39 41 41 40 39
56 57 57 59 62 65 66 69 69 72 72 70 65 61 61 61 55 50 51 50 50 47 53 57 58 58 54 51 44 45 45 46 43 47 44 44 42 40 38 41 40 40 40 38 36
59 61 64 68 71 72 73 73 71 70 70 69 64 62 61 64 63 56 56 56 55 51 47 53 63 57 54 51 49 49 46 44 46 49 45 46 44 41 41 42 40 38 36 35 35
64 68 73 75 75 72 66 58 51 45 52 48 51 53 54 60 65 61 58 56 57 55 54 45 53 50 53 53 54 52 49 45 47 46 47 46 45 42 40 41 40 36 33 34 32
70 75 77 76 69 57 47 34 19 13 31 28 34 39 47 60 62 48 58 59 60 59 54 52 45 53 50 54 53 53 50 47 45 43 46 47 47 44 42 43 41 36 37 33 33
76 79 74 69 54 40 29 28 22 21 29 13 15 21 32 45 46 54 44 52 61 57 56 56 52 53 52 51 53 52 49 48 46 47 49 49 49 44 43 44 40 38 36 35 33
79 76 69 51 34 24 23 25 20 21 27 9 11 12 13 23 39 44 49 51 48 52 53 51 50 52 52 48 51 51 52 49 49 50 53 48 50 46 44 42 39 38 38 38 38
77 71 58 38 29 22 19 18 17 21 18 16 5 11 11 12 27 39 44 52 55 50 55 55 57 54 53 54 48 53 53 51 52 54 58 52 53 49 47 41 42 38 39 40 39
71 62 47 29 21 18 15 16 18 14 15 16 15 11 10 11 21 30 41 48 51 51 49 53 58 58 55 51 53 49 53 53 54 57 57 53 55 51 44 39 43 39 38 40 39
63 53 36 21 18 14 14 14 12 13 16 19 12 11 12 11 17 25 38 44 48 52 53 44 50 57 59 49 49 52 55 52 54 56 57 56 52 50 39 39 38 40 38 39 38
55 44 28 19 15 14 13 11 11 15 16 13 19 15 15 13 17 20 27 40 43 50 50 49 41 56 55 54 52 49 47 53 54 55 55 54 52 48 42 40 38 41 39 41 40
49 34 21 16 13 13 12 11 13 19 9 14 17 19 12 17 18 20 20 26 37 43 48 48 43 47 52 54 51 51 52 54 55 53 54 49 46 50 42 40 40 41 41 42 41
42 28 20 14 12 12 11 9 13 9 14 19 21 20 17 18 19 22 22 22 26 33 44 48 46 42 44 47 50 51 48 51 53 56 55 49 36 40 45 42 40 42 41 40 40
36 24 14 11 10 9 5 8 13 9 15 19 22 14 16 15 15 17 22 22 21 29 36 45 48 41 42 49 52 55 52 54 57 54 58 52 46 35 37 43 42 40 39 41 41
31 20 11 7 4 7 8 8 3 10 16 17 21 21 14 16 19 18 17 19 19 25 29 34 37 42 40 41 47 51 53 54 57 59 56 57 53 46 39 36 40 39 37 40 39
27 14 4 6 7 4 7 7 2 2 17 21 23 24 19 14 17 24 22 15 24 26 29 32 33 36 30 28 40 46 51 48 54 58 58 53 54 54 43 40 38 34 39 38 37
17 14 2 2 3 2 8 8 3 7 9 21 28 25 27 26 10 26 23 17 17 26 25 24 31 32 38 35 32 45 51 57 55 57 55 54 54 44 44 42 38 37 38 37 38
11 8 6 2 5 7 7 6 8 10 8 14 23 28 21 20 15 22 23 21 15 16 26 26 24 28 29 40 46 47 49 56 58 59 59 62 57 50 46 41 41 41 36 35 36
Wind_Direction
315 314 301 286 279 275 270 267 269 267 255 248 246 253 252 249 246 243 241 237 233 234 232 232 230 228 228 230 228 226 226 225 226 225 227 226 227 227 228 229 230 231 229 231 232
316 309 299 283 276 277 276 272 266 267 267 255 245 244 250 249 246 244 241 239 235 233 234 233 232 230 228 229 230 230 230 226 227 226 228 226 228 228 227 228 231 232 232 234 237
313 304 292 283 281 281 281 278 274 268 265 266 253 242 243 246 247 242 242 238 238 235 233 233 234 232 231 229 229 230 229 230 227 227 229 229 231 229 231 230 232 233 231 232 237
309 300 296 293 287 287 280 277 273 270 265 264 265 252 241 243 245 241 242 240 237 236 234 231 233 235 233 232 231 232 232 230 229 227 228 231 231 231 233 232 233 235 236 236 240
306 304 301 296 292 288 285 278 275 270 268 265 268 264 247 240 241 241 237 240 236 235 235 231 229 232 235 233 233 231 232 233 231 229 230 230 232 233 232 235 236 236 238 239 240
305 304 299 297 294 290 285 284 278 274 270 263 263 267 257 245 238 239 238 235 236 233 233 232 229 228 232 233 233 233 233 231 232 232 231 232 233 235 235 236 237 240 240 242 243
306 303 299 296 293 290 288 286 285 281 276 270 265 261 260 252 239 238 234 233 234 234 231 233 231 228 227 231 230 233 232 233 233 234 234 234 234 235 239 238 239 241 241 242 244
304 302 300 298 295 292 288 285 284 281 277 272 266 262 256 251 241 239 239 233 230 234 234 229 231 230 227 228 228 230 231 233 232 233 234 234 233 237 240 239 239 240 241 242 243
304 304 304 301 296 291 286 282 280 278 276 270 264 263 249 247 241 238 238 241 233 230 229 230 227 228 229 228 227 228 231 233 233 232 235 233 232 235 238 238 239 239 239 239 239
307 310 308 301 296 291 287 283 280 276 273 267 261 256 247 243 239 236 236 237 240 228 224 225 225 228 229 227 227 229 230 233 233 233 234 233 230 228 231 236 236 235 233 233 234
313 312 307 303 299 297 293 287 283 277 272 268 260 254 247 245 242 234 235 235 235 240 226 220 224 227 230 229 230 231 230 229 229 234 229 232 228 226 225 231 232 231 231 230 231
316 314 310 308 306 302 296 290 284 279 272 268 262 254 243 242 242 230 227 229 229 236 237 223 222 222 221 224 225 227 227 227 229 229 227 229 227 225 221 227 229 229 225 221 221
318 316 313 311 309 303 300 296 290 280 274 263 257 249 236 231 238 232 225 226 226 227 231 233 225 223 221 221 223 226 225 225 228 226 228 229 228 225 222 224 225 222 216 218 222
319 318 316 314 311 308 300 292 279 262 282 277 254 247 229 224 226 226 222 224 225 224 224 228 228 217 223 220 222 223 225 226 227 227 229 227 227 224 221 221 220 217 218 219 225
322 320 319 317 317 307 293 278 268 246 272 279 275 255 224 228 228 228 215 220 223 223 222 225 224 220 218 217 220 222 223 224 226 226 227 226 230 219 223 221 216 215 217 220 221
323 323 322 325 312 298 280 280 270 255 252 232 272 237 229 227 227 223 219 219 221 222 220 223 221 227 221 219 219 219 221 222 224 226 227 225 228 219 221 222 216 215 218 218 217
326 326 326 323 309 300 288 270 260 248 240 208 247 220 206 209 217 223 216 213 214 213 217 219 220 220 224 217 219 217 219 220 223 224 226 222 226 220 221 216 217 215 220 217 220
329 328 327 323 315 307 290 269 261 244 223 220 221 233 226 206 212 211 208 212 214 213 221 218 222 218 219 222 215 217 220 222 223 225 227 225 226 225 223 217 223 221 219 220 221
330 328 329 324 322 311 289 268 255 228 211 222 204 196 198 198 212 208 209 210 214 212 212 219 223 221 219 221 223 220 217 220 224 227 229 228 226 228 224 226 222 224 220 221 222
333 328 329 333 329 309 292 258 229 219 198 230 223 218 218 230 219 207 210 215 214 214 213 217 217 225 220 221 222 222 219 221 220 226 230 234 229 229 221 223 220 221 222 220 222
335 331 326 329 315 309 295 250 243 211 234 217 198 201 226 222 222 205 208 212 219 214 212 214 222 227 219 218 220 221 220 219 219 223 229 231 236 232 221 221 220 219 222 223 224
339 336 325 325 310 306 288 264 216 210 203 222 216 207 202 215 217 209 205 205 208 212 212 215 219 226 221 217 217 217 218 222 226 222 223 229 226 236 223 220 218 220 221 225 227
341 338 338 325 310 322 301 290 233 220 216 217 224 209 197 205 202 202 204 205 208 204 210 213 218 219 226 217 216 216 218 218 219 222 222 227 224 229 227 222 222 221 222 226 229
343 340 342 352 61 67 22 356 272 225 222 226 225 205 198 213 209 212 216 193 205 194 206 209 220 221 227 228 223 223 218 217 219 222 220 224 220 220 228 222 222 223 224 226 228
345 348 30 87 92 61 359 336 323 245 233 237 220 219 214 189 224 215 204 214 199 216 215 211 213 212 214 216 226 226 222 222 223 224 224 221 222 221 217 218 218 216 222 225 228
352 15 45 77 166 28 6 13 10 249 245 229 234 227 220 224 210 213 212 224 226 204 214 219 227 231 223 222 217 222 222 221 216 221 225 225 226 221 224 224 224 225 225 226 229
347 13 5 245 285 305 328 338 290 304 259 251 228 229 219 227 215 211 221 224 234 220 205 215 220 228 231 234 231 230 222 225 221 221 220 220 220 216 220 219 220 220 224 224 226